Theta_e
317 318 318 318 318 318 319 318 319 318 318 318 318 318 318 318 318 318 318 319 318 317 314 309 307 307 306 306 306 306 306 308 310 312 314 311 308 310 313 311 313 315 312 313 314 312 311 311 312 313 317 318 315 316 314 315 323 334 339 332 321 319 321 319 321 319 318 320 316 312 314 317 317 311 310 308 312 316 314 319 319 320 322 321 322 324 328 335
317 318 318 318 318 318 318 318 318 318 318 318 317 318 317 317 317 318 318 318 317 316 313 309 307 307 306 306 306 306 308 311 313 315 313 308 309 311 312 312 314 315 312 311 313 312 312 312 311 315 323 321 314 316 316 313 321 335 333 326 325 326 320 317 321 318 315 317 316 314 312 315 315 313 311 312 316 316 316 317 317 322 323 323 324 325 330 334
318 318 318 317 317 318 318 317 318 317 317 317 317 317 317 317 317 317 318 317 317 315 312 309 307 306 306 307 306 307 310 313 316 316 311 307 310 312 313 313 314 314 312 311 312 311 311 313 311 316 324 322 316 318 319 316 318 326 327 326 329 330 320 314 318 318 315 314 316 315 310 313 312 312 311 313 317 315 318 319 316 321 324 329 326 324 330 333
318 318 317 316 316 317 317 316 317 317 317 317 317 317 316 316 316 316 316 316 316 314 312 309 307 306 307 307 307 309 310 310 314 315 310 308 311 313 315 314 314 314 311 310 312 311 311 312 312 319 324 321 320 319 318 316 316 318 323 327 324 322 318 315 316 316 314 312 316 315 311 312 310 310 312 314 317 316 320 319 317 321 325 336 328 324 331 332
317 317 316 314 314 316 316 316 316 316 316 316 316 316 316 316 315 315 316 316 314 312 311 309 307 306 307 307 309 311 309 308 311 314 311 310 312 314 317 316 315 313 311 312 311 311 312 311 313 321 324 319 320 320 317 313 314 316 316 319 319 317 316 314 313 314 312 311 314 315 313 312 310 311 314 315 316 318 320 315 316 316 322 340 331 326 331 332
317 316 315 314 314 314 315 316 316 316 316 315 315 315 316 315 314 315 315 315 312 311 311 309 307 307 308 308 310 311 309 308 311 315 315 312 314 315 317 316 314 311 312 313 310 311 313 313 315 319 321 320 318 318 316 311 312 319 315 313 316 316 315 313 312 312 310 312 315 315 312 311 312 312 312 314 315 317 314 309 309 306 313 328 327 327 331 332
316 314 314 313 313 314 315 315 315 315 315 315 315 314 314 314 314 314 314 313 311 310 310 308 307 308 309 309 311 313 314 314 312 315 317 315 316 315 315 314 311 312 314 312 309 312 313 316 317 318 321 321 317 315 315 313 314 321 318 313 314 312 312 312 311 310 310 314 314 311 310 311 316 313 309 312 316 315 308 303 302 304 313 324 325 329 332 332
314 313 313 313 313 314 315 315 315 315 315 314 314 314 314 314 314 314 313 311 310 310 309 308 308 308 310 310 315 317 316 317 313 315 317 316 316 313 312 312 311 313 314 311 310 312 314 316 315 315 319 317 316 316 313 313 316 321 318 314 313 311 312 312 311 313 312 313 310 309 312 313 313 310 310 315 316 311 307 309 312 314 321 326 327 330 330 332
314 313 313 313 314 315 315 315 315 315 314 314 314 313 314 314 314 313 311 310 310 309 308 308 307 308 311 310 314 316 314 314 313 314 315 315 314 310 311 312 312 313 312 311 310 311 313 315 314 314 314 312 314 317 314 315 317 318 317 315 315 313 313 312 313 316 314 312 311 311 314 313 310 308 312 318 314 307 311 324 327 328 335 331 327 328 329 331
313 313 313 313 314 315 314 314 314 314 314 313 313 313 314 314 314 313 311 310 310 309 308 307 307 310 311 310 310 310 311 314 313 314 314 313 311 309 311 312 312 312 310 311 309 309 313 313 312 311 313 312 313 314 313 314 315 316 317 316 315 313 313 313 314 316 314 313 312 313 315 313 309 310 315 315 308 306 320 339 330 331 344 334 327 327 327 329
313 313 313 312 313 314 314 314 314 314 313 313 313 313 313 314 314 312 311 311 310 309 308 307 308 311 311 310 310 309 312 315 314 313 313 312 310 310 312 312 312 312 311 311 308 309 312 309 307 309 312 312 313 313 312 312 312 314 317 316 315 314 313 313 316 316 314 313 312 314 314 313 310 312 318 313 306 308 323 344 335 334 338 329 328 326 324 326
313 313 312 312 313 313 313 314 313 313 313 313 313 313 313 313 313 312 311 312 310 308 307 307 308 312 311 310 310 309 313 315 313 312 312 311 310 310 312 312 312 312 312 312 310 311 311 309 309 312 313 311 313 314 312 311 312 314 316 315 317 318 314 312 315 314 314 313 313 314 311 313 313 315 318 310 308 312 318 331 336 337 333 326 328 326 324 323
313 312 312 312 312 312 313 313 312 313 313 313 313 313 313 313 312 312 311 312 311 307 307 307 309 312 312 311 311 310 314 315 313 312 312 312 311 312 313 313 313 313 313 312 312 311 310 310 311 312 312 314 314 310 311 313 314 314 314 317 318 318 315 311 313 315 313 312 311 311 310 315 317 315 312 307 309 314 315 319 323 328 328 324 325 326 326 322
313 313 312 312 312 312 312 312 312 312 312 312 312 312 312 312 312 312 311 311 310 307 308 308 310 311 311 311 312 313 316 314 312 312 312 312 312 314 313 313 314 314 313 313 312 311 310 310 311 311 310 314 312 308 315 318 317 315 311 318 319 315 316 312 313 317 313 310 309 308 310 316 317 313 307 307 312 314 314 319 317 319 321 320 320 321 324 321
313 312 312 312 312 311 311 311 312 312 312 312 312 312 312 312 312 311 311 311 309 308 308 309 311 311 310 310 312 315 316 313 313 312 312 313 313 313 313 313 314 314 313 313 312 310 310 311 314 315 311 310 311 313 320 320 322 319 311 318 318 312 316 315 314 318 315 311 310 309 312 316 316 314 309 307 312 313 315 320 319 320 319 318 317 316 318 317
313 312 311 312 312 311 311 311 311 311 311 311 311 312 312 311 310 310 311 311 310 309 308 312 313 309 308 309 311 314 314 312 313 313 313 313 314 314 312 312 312 313 313 312 312 311 310 314 314 313 312 312 314 317 319 319 323 321 315 319 318 313 315 313 313 315 314 313 313 311 313 317 317 314 312 309 312 313 316 321 321 322 321 319 316 312 313 312
312 311 311 311 310 310 310 311 311 311 311 311 312 312 311 310 309 310 312 312 311 310 310 315 313 308 307 308 311 314 313 312 313 313 314 313 314 313 311 312 311 310 312 311 312 312 311 314 310 311 316 314 315 318 316 315 317 317 318 319 316 316 314 312 314 313 311 313 314 313 313 317 317 315 316 313 311 312 316 320 320 320 319 318 315 313 312 311
311 311 311 310 309 310 310 311 310 310 311 311 311 311 310 311 311 312 314 313 311 310 312 313 310 310 309 308 312 313 312 312 313 313 313 313 313 312 312 312 309 309 313 313 313 314 314 315 314 317 319 313 313 317 316 315 316 316 318 316 313 314 312 313 317 313 311 313 314 315 314 316 318 316 316 312 310 314 317 317 316 315 316 314 313 313 312 310
312 311 310 310 309 309 310 310 310 311 311 311 311 312 312 312 312 314 313 310 309 309 311 310 308 312 312 310 313 312 311 312 313 313 312 312 311 311 312 311 312 314 315 315 314 315 319 319 316 318 317 314 314 314 318 321 320 319 320 319 320 320 316 315 316 311 311 315 316 318 317 318 318 317 318 314 310 313 315 315 314 312 313 312 311 312 311 310
312 311 310 309 309 309 309 309 310 311 311 312 313 312 312 313 313 315 313 310 309 308 311 312 310 313 312 312 314 312 312 312 313 313 311 311 311 312 312 311 316 318 316 319 316 313 319 319 315 317 315 315 314 313 316 318 317 318 319 322 323 321 318 315 315 312 311 315 318 320 320 319 317 317 319 314 309 312 315 316 315 313 312 312 312 312 311 310
313 312 311 309 308 309 309 309 310 311 311 313 314 312 312 313 312 315 314 311 307 304 309 311 309 311 311 312 313 310 312 313 312 314 312 312 312 313 314 313 316 316 317 321 318 313 317 319 318 318 314 313 314 314 316 316 317 319 318 320 319 319 320 315 313 314 311 313 317 318 319 320 318 318 318 313 310 314 315 315 314 314 313 311 312 312 310 309
313 312 312 310 309 309 309 309 310 311 312 313 313 312 314 311 308 310 311 310 307 304 309 310 309 314 312 310 311 309 313 316 315 314 313 312 312 314 316 315 315 316 316 317 317 315 316 320 320 315 311 312 313 316 320 319 322 323 318 318 318 318 319 314 313 314 311 313 319 320 320 319 318 317 316 311 311 313 311 311 311 311 312 311 310 310 308 308
313 312 312 310 309 309 309 309 311 311 312 313 312 312 314 310 308 309 309 311 310 307 311 312 314 319 315 311 312 311 313 316 316 316 312 311 314 315 315 315 316 317 316 315 317 317 317 319 316 309 308 314 316 317 320 319 321 322 320 319 318 317 318 317 315 314 311 312 316 319 318 317 317 319 318 309 306 310 307 307 309 308 310 311 309 307 307 308
313 312 311 310 309 309 309 310 311 311 312 312 311 311 312 311 309 309 309 311 312 310 310 309 314 321 317 312 312 312 313 313 315 315 311 312 315 314 314 316 316 316 315 315 316 317 316 312 307 306 310 316 316 315 319 320 318 319 324 330 325 320 321 318 315 315 314 310 311 314 315 322 325 326 324 311 307 312 308 308 310 308 308 309 309 308 307 306
312 311 310 309 309 309 310 311 311 311 312 311 311 311 311 312 309 309 310 311 311 310 308 307 312 317 314 312 311 311 313 313 314 313 310 312 315 313 313 315 315 316 316 315 314 316 314 307 305 309 312 316 316 316 321 323 319 316 324 332 328 326 324 318 316 318 319 314 310 309 313 326 331 329 324 317 316 316 311 312 313 311 310 311 314 315 313 311
311 310 309 309 309 310 310 312 311 311 312 310 311 312 311 311 310 310 311 313 312 309 309 310 310 312 312 313 313 312 313 313 311 310 310 311 312 312 313 313 314 315 315 314 314 316 312 306 309 313 313 316 315 316 317 319 321 316 316 320 322 327 326 322 319 318 319 315 308 308 314 320 323 324 323 318 318 317 312 314 315 311 312 313 314 316 317 317
310 309 309 309 309 311 311 312 311 311 313 312 311 312 311 311 311 309 310 314 314 310 310 309 307 310 313 311 312 312 313 314 311 311 312 311 310 311 315 315 314 315 314 314 315 314 310 309 312 314 316 317 315 316 315 316 320 316 313 316 322 325 325 325 324 321 321 314 311 316 318 314 316 320 321 314 314 316 315 314 314 311 312 312 313 315 316 318
310 310 310 310 310 312 312 312 311 310 312 312 311 311 311 312 310 309 310 312 312 311 309 308 306 310 312 309 311 312 312 314 315 313 309 309 309 312 319 318 317 319 313 313 316 313 312 316 315 315 319 318 316 317 314 317 321 316 311 314 319 321 326 330 329 327 321 312 316 322 313 311 320 323 322 314 311 314 314 312 313 311 311 311 313 314 315 316
310 310 310 310 311 313 313 312 310 311 311 311 311 311 311 311 308 310 314 310 309 309 308 308 309 311 312 310 312 314 312 313 316 314 309 309 309 311 317 316 317 320 313 314 320 314 312 315 314 316 318 317 317 314 313 320 323 314 307 312 315 318 324 326 325 325 320 316 322 320 309 310 319 325 325 315 309 314 313 312 312 311 310 311 312 313 314 314
309 309 309 311 312 314 314 311 310 311 312 311 312 311 310 310 308 309 311 310 310 309 307 307 309 313 313 311 313 314 315 315 315 314 313 313 312 311 312 310 315 322 319 321 322 315 311 310 311 314 315 314 313 311 311 316 315 310 312 317 317 321 326 325 324 321 317 323 325 314 308 310 312 321 325 313 310 314 314 313 313 312 312 311 312 313 313 314
310 310 311 312 314 315 313 311 312 313 312 312 312 310 309 311 312 309 308 312 313 309 307 308 309 313 313 312 314 314 315 317 315 315 315 314 314 314 312 311 317 324 322 322 320 316 313 312 313 313 313 313 314 313 309 308 310 314 322 322 317 323 326 325 326 319 316 327 322 310 309 311 310 317 317 311 313 315 314 314 312 312 312 312 313 312 313 314
312 312 313 313 314 315 313 312 313 313 313 312 310 309 310 311 310 309 308 310 313 310 310 310 309 312 314 314 316 316 317 318 315 315 318 316 314 314 315 316 321 320 318 319 320 317 317 316 313 312 311 314 318 318 312 311 315 318 320 322 321 322 320 324 329 320 318 323 314 307 310 310 312 316 313 314 316 314 314 314 312 311 311 311 313 313 314 314
313 313 313 313 315 315 314 313 313 313 312 310 308 312 316 311 308 311 310 309 311 310 311 312 311 313 314 314 316 316 316 316 314 315 316 316 315 313 314 317 320 321 319 321 321 318 319 320 315 313 314 313 316 318 316 316 318 315 316 320 323 322 317 318 321 314 315 317 309 307 310 311 314 315 314 317 314 311 312 312 313 313 313 313 313 315 316 313
314 314 314 314 315 315 315 314 313 313 311 309 308 312 315 312 310 313 312 309 311 312 313 314 313 312 313 314 315 315 316 314 313 315 315 315 315 315 316 314 316 324 325 320 320 320 320 321 318 316 315 314 314 316 318 319 316 315 316 316 319 326 324 321 321 321 322 318 310 307 311 318 318 309 311 316 312 309 311 312 314 314 314 315 315 316 315 313
314 315 315 316 316 316 316 315 313 312 310 309 309 310 311 310 313 313 310 309 313 314 313 313 312 313 314 315 314 313 317 316 313 314 316 316 315 315 316 312 314 324 324 317 317 318 317 317 316 314 312 313 315 315 316 317 316 316 314 312 315 322 322 317 314 318 320 315 312 311 314 321 316 306 309 312 309 308 309 311 314 314 313 314 315 314 313 313
313 314 315 315 315 316 316 316 315 312 309 308 308 310 309 311 316 315 309 311 313 312 312 312 314 315 314 314 315 312 314 317 315 315 316 315 315 315 314 314 314 317 318 317 320 319 316 314 314 314 313 312 314 313 314 317 316 315 313 315 317 314 317 315 306 306 310 311 313 313 315 319 313 308 312 310 308 308 307 310 312 312 314 316 316 314 312 313
311 312 313 312 313 315 315 316 315 312 311 309 308 311 310 310 314 316 312 312 312 311 312 313 313 314 314 314 316 314 314 317 315 315 316 314 315 315 314 315 314 313 315 318 320 319 318 315 313 315 315 311 310 312 314 314 313 316 318 316 312 308 314 318 312 313 314 314 320 315 313 317 314 313 315 311 310 310 308 311 311 312 316 316 314 312 311 311
309 310 310 309 312 313 314 315 313 312 314 311 310 314 315 312 312 315 315 310 310 313 314 314 313 313 313 313 315 314 314 316 315 315 316 314 315 316 314 314 314 313 314 314 315 317 321 319 311 312 316 313 312 314 315 312 309 314 318 313 312 315 317 313 312 320 316 312 322 320 311 311 313 316 316 312 313 313 309 311 312 312 316 315 314 312 310 310
308 311 311 309 310 312 313 314 312 313 315 311 311 313 316 316 313 314 315 310 312 315 313 315 315 312 312 313 314 313 312 314 314 315 316 314 315 315 313 314 314 312 311 313 314 315 320 324 315 311 313 314 314 316 317 316 311 310 310 307 314 323 322 314 311 318 315 310 318 320 314 315 314 316 318 313 312 312 310 312 313 313 315 315 315 313 311 311
307 312 311 307 310 312 312 313 313 316 315 311 313 313 313 315 313 313 313 312 314 313 312 317 316 312 314 313 312 313 313 314 314 315 316 313 313 313 312 313 314 312 311 312 315 315 316 320 318 314 313 315 318 317 317 317 313 311 310 310 314 316 314 313 312 313 316 316 319 318 318 327 322 312 315 315 310 309 310 313 314 313 315 316 316 315 313 313
306 312 310 306 310 312 312 315 315 316 314 312 315 315 313 314 314 314 314 313 313 312 313 318 316 314 317 314 312 313 313 315 314 314 316 312 311 313 311 312 313 311 311 311 315 319 316 315 318 317 316 317 318 314 311 314 313 311 312 311 314 314 314 316 314 311 312 314 318 315 314 327 324 309 311 314 308 306 309 312 313 313 314 315 315 314 313 313
308 313 309 306 310 311 313 317 315 314 315 314 314 314 313 315 315 315 315 313 315 314 313 317 318 320 319 313 312 314 313 315 314 314 317 314 312 312 310 312 312 309 311 313 313 316 318 319 321 319 318 317 313 308 306 312 313 311 311 313 314 314 316 320 318 315 310 307 311 312 311 322 323 310 309 309 304 304 308 311 311 312 312 314 313 311 310 311
307 309 308 307 309 310 314 318 315 314 316 314 313 312 312 315 315 314 314 314 315 315 315 318 317 315 315 313 313 314 312 314 314 313 316 314 311 313 312 312 312 310 312 314 313 313 316 321 321 318 319 318 313 310 308 310 312 312 314 316 314 313 316 322 323 320 315 310 312 312 313 325 328 313 309 309 306 305 308 310 311 311 312 314 312 311 313 313
305 307 308 308 308 310 313 316 316 315 313 312 314 313 311 313 314 314 316 317 317 316 319 320 313 311 315 315 314 314 313 313 314 313 316 314 310 313 314 312 311 312 313 313 314 313 314 319 319 317 318 319 317 316 314 314 314 316 319 317 315 316 316 315 315 316 316 316 316 314 317 327 325 313 309 310 308 307 308 310 311 311 313 313 312 313 316 316
305 306 307 307 308 309 311 313 314 314 313 312 315 315 313 313 312 314 317 317 316 317 318 317 313 316 320 316 312 313 312 314 315 313 315 314 310 312 315 313 310 311 314 318 316 313 316 320 317 316 317 316 317 317 317 318 315 316 320 317 314 315 314 313 315 314 315 317 314 315 322 322 314 311 310 309 309 309 309 310 311 313 314 314 314 316 317 316
305 306 306 306 307 308 308 309 311 313 313 314 314 314 315 315 312 313 315 314 314 316 317 314 314 318 319 314 312 313 311 313 316 314 314 314 312 313 313 313 313 314 317 319 315 315 322 320 313 315 315 313 314 316 317 321 318 316 318 316 313 312 312 317 321 316 315 316 312 315 323 317 311 311 311 309 311 312 310 311 312 312 313 316 317 318 317 315
304 306 306 306 306 306 305 307 310 312 313 314 314 312 314 316 314 314 313 312 313 316 316 314 314 318 317 314 314 314 311 313 314 312 314 315 314 312 310 311 313 315 316 314 312 317 322 317 313 315 314 314 320 321 318 319 318 317 318 316 314 313 313 317 318 314 315 316 312 315 319 314 313 314 311 310 313 313 312 312 313 312 313 316 317 316 315 312
301 303 303 303 306 306 306 306 308 310 312 313 314 313 313 314 315 315 314 313 313 314 315 315 315 318 317 314 314 315 313 313 314 313 314 315 315 315 313 311 311 312 315 312 313 319 319 314 315 314 312 315 320 320 317 317 317 317 318 316 314 314 313 314 315 313 314 314 312 314 314 312 314 315 311 310 311 312 312 311 312 312 313 316 316 315 315 312
299 301 300 301 304 305 305 306 306 309 311 312 313 313 313 314 314 315 315 315 316 315 315 317 318 319 318 315 316 318 315 313 315 316 315 315 317 318 317 315 312 311 314 313 313 316 317 317 318 313 310 312 315 316 315 315 316 316 316 315 314 313 313 313 314 313 312 313 313 316 316 314 314 314 311 308 309 311 312 311 312 314 316 318 318 317 316 312
299 301 300 301 303 302 304 306 306 308 310 311 312 312 312 313 313 315 316 316 318 317 314 316 319 319 317 317 319 320 317 317 318 318 317 316 318 318 318 319 316 312 313 312 311 311 311 317 317 312 310 313 313 314 313 313 315 316 315 314 313 313 313 312 313 313 312 312 314 316 317 314 315 316 312 308 309 312 314 314 314 316 319 319 317 317 314 311
297 297 298 302 303 302 305 307 306 308 309 310 311 311 312 312 312 314 315 313 317 318 314 315 319 317 315 315 318 318 317 319 320 318 316 316 317 318 317 318 317 314 313 312 314 313 311 315 316 313 313 315 312 312 313 312 312 313 315 315 313 313 313 312 312 313 313 313 313 314 314 312 314 318 314 310 310 311 314 315 315 317 318 315 316 316 312 308
296 295 298 303 303 301 303 306 306 308 309 309 310 310 311 312 312 314 315 312 314 316 315 316 319 318 317 316 317 317 316 315 316 315 314 316 318 318 316 316 316 316 314 314 317 318 315 318 319 315 315 315 309 310 314 313 312 313 314 314 312 312 312 311 311 313 313 313 314 313 311 312 315 315 313 313 313 312 311 312 315 318 315 312 313 313 309 306
Wind_Speed
24 24 23 21 21 20 20 20 18 17 16 16 16 16 15 15 15 13 15 15 13 13 14 17 17 17 17 17 17 15 12 11 10 11 12 12 16 15 10 11 13 10 12 13 14 14 8 6 7 8 8 4 3 2 2 3 2 4 3 3 2 3 3 5 7 6 3 1 4 4 4 7 3 1 1 1 3 3 2 4 3 2 4 4 1 1 11 21
25 23 22 21 21 19 19 18 17 16 16 16 15 15 15 14 14 12 13 14 12 12 14 16 16 17 16 16 16 13 10 10 8 9 16 16 12 14 15 13 14 12 13 15 18 18 10 6 7 8 5 3 2 2 2 2 3 4 3 3 2 5 4 4 6 5 2 1 4 4 2 4 5 4 2 1 2 4 1 4 4 4 5 4 2 5 16 21
25 22 22 22 20 18 18 17 17 17 16 15 15 14 14 13 13 14 13 13 12 12 14 16 16 17 16 15 13 10 9 5 3 9 17 17 13 13 13 14 14 14 15 15 18 18 15 14 13 8 5 3 1 2 3 2 1 2 3 3 4 6 3 3 5 5 3 2 6 4 2 2 3 4 2 3 1 2 3 5 2 4 7 5 2 9 18 19
24 22 22 23 21 18 17 17 17 17 16 15 15 13 13 14 14 13 12 11 12 13 15 15 16 16 15 14 11 10 8 1 3 7 12 15 15 13 12 14 14 14 15 14 15 15 16 18 12 6 5 3 3 3 3 2 0 2 3 3 4 3 2 2 4 4 3 3 5 5 4 2 3 3 3 6 3 3 5 6 7 8 8 6 4 10 17 18
24 22 23 23 22 18 16 18 17 16 16 15 15 13 13 15 14 12 11 10 12 14 14 15 16 16 15 13 12 12 8 2 4 5 9 14 16 15 13 14 15 15 15 13 15 15 17 15 8 5 5 3 2 3 1 2 1 2 1 3 4 2 2 2 3 3 3 3 5 6 5 3 3 3 3 8 5 5 5 5 7 7 6 6 7 13 16 17
24 22 23 23 23 20 17 18 17 16 16 15 14 14 13 14 13 11 10 10 13 14 14 16 16 15 14 12 13 13 7 1 3 2 10 16 17 16 14 15 15 15 15 15 16 16 14 8 6 5 4 3 3 3 2 2 1 2 1 0 3 2 2 0 2 1 3 6 6 6 4 2 4 2 2 7 7 6 4 3 5 6 6 8 10 15 14 15
24 22 21 21 24 23 19 18 18 16 16 15 14 14 13 12 11 11 11 11 13 14 15 16 15 15 13 12 13 8 3 3 4 2 12 17 18 16 15 16 15 16 16 16 14 10 8 7 6 5 5 4 3 3 3 1 4 4 2 0 2 1 2 2 2 1 3 5 5 3 2 3 4 4 2 5 9 5 3 3 4 4 6 10 12 14 15 17
25 22 20 21 24 24 20 18 17 17 16 15 13 13 12 10 10 11 11 12 12 14 14 15 15 15 14 13 9 3 1 4 2 5 12 17 17 16 16 15 15 16 17 16 13 9 7 8 7 5 4 2 4 4 3 2 4 3 3 2 2 1 2 2 2 3 2 2 1 3 4 1 4 3 1 7 8 4 5 4 1 3 6 8 10 13 14 16
25 21 20 22 24 22 20 18 17 17 15 15 13 12 11 10 10 10 12 12 12 13 14 15 15 15 15 10 6 3 4 5 3 7 11 15 15 16 16 14 16 17 15 13 12 12 7 5 5 5 5 3 5 5 3 3 1 2 4 3 4 1 4 1 3 5 3 1 2 4 3 3 3 1 3 6 5 4 3 3 2 5 6 6 7 10 13 14
25 22 21 23 23 21 20 19 18 17 16 15 13 12 12 11 10 11 12 12 12 13 15 16 16 17 15 7 6 3 4 3 7 8 11 14 14 17 16 14 16 16 14 9 11 12 6 6 7 6 7 3 4 4 2 3 3 3 6 5 5 2 3 2 3 5 3 1 2 4 2 3 2 2 4 4 4 4 2 4 3 2 5 6 5 6 10 12
24 22 23 24 23 22 21 19 18 16 15 15 13 13 12 10 10 11 11 11 12 14 15 16 16 17 14 7 6 4 3 4 8 9 11 12 13 16 14 13 14 14 12 8 11 10 5 12 12 6 4 3 4 3 1 3 4 4 6 6 6 4 3 5 4 5 3 2 3 3 4 2 2 1 6 4 4 3 3 2 3 1 3 4 3 4 6 9
24 22 23 25 24 23 21 19 18 16 15 14 13 12 10 9 9 11 11 10 12 14 16 16 17 17 11 5 3 5 3 5 8 9 11 11 12 14 11 13 12 11 11 8 9 7 7 17 14 7 1 5 6 2 2 3 4 3 4 5 5 6 5 6 3 4 2 2 3 1 1 4 2 5 8 4 5 3 4 0 3 2 4 3 3 4 5 8
23 22 23 25 25 24 21 20 19 17 15 14 13 12 10 9 9 10 11 10 12 14 16 16 17 16 9 2 3 5 5 7 8 8 10 11 12 12 10 11 11 8 8 8 9 7 11 16 12 8 3 6 4 2 5 4 3 2 3 4 2 6 4 4 2 4 1 1 5 0 1 6 6 9 8 4 4 4 2 2 3 3 3 3 3 4 5 8
23 22 23 24 25 25 21 20 20 18 15 15 13 12 11 9 9 11 10 10 13 15 16 16 16 13 6 1 3 5 7 8 8 9 10 12 12 12 10 10 9 6 6 8 10 10 13 15 14 9 3 4 4 3 5 6 4 3 3 2 2 1 3 5 3 3 2 0 5 3 2 6 7 8 5 5 3 1 3 5 4 4 4 3 3 4 6 7
23 21 23 24 24 25 22 19 19 17 15 15 13 11 11 9 9 10 10 11 12 15 16 17 16 10 4 2 2 6 8 7 9 10 11 14 14 11 9 10 9 7 9 10 12 13 14 16 14 7 2 2 5 6 4 4 4 4 2 0 3 3 4 7 3 2 2 1 5 5 2 6 7 8 6 5 4 3 2 5 4 5 5 4 4 5 5 7
22 21 23 23 23 24 22 18 18 17 15 14 13 12 12 10 10 11 11 11 13 15 15 14 12 8 4 1 2 6 6 6 9 10 12 15 12 10 12 13 11 11 12 12 15 13 11 12 7 2 4 3 5 7 5 4 3 4 2 3 2 3 2 5 2 3 2 1 3 3 2 3 3 6 6 4 4 5 3 6 6 5 5 5 4 5 5 6
22 21 22 22 21 22 22 19 18 17 15 14 13 13 12 11 11 12 11 13 15 14 13 13 10 6 2 2 3 4 4 6 10 10 13 13 10 14 16 10 9 12 13 12 11 7 7 7 2 1 4 3 3 6 5 2 2 2 2 2 2 3 2 2 2 3 4 1 1 2 1 6 5 7 8 6 2 1 4 7 7 5 6 5 4 4 5 6
22 21 21 21 20 20 22 20 19 17 16 16 14 13 14 14 14 13 13 16 16 12 10 9 8 4 2 3 3 3 4 9 11 10 12 12 12 15 12 7 8 11 10 7 4 4 5 4 2 2 4 3 2 5 5 5 5 5 3 3 2 2 3 3 2 2 5 3 1 2 2 9 10 9 10 7 2 3 6 6 6 6 7 6 5 5 6 6
23 20 19 20 20 20 21 21 19 18 18 16 16 17 17 15 13 9 10 11 9 6 5 4 5 4 4 4 2 3 7 12 11 8 10 12 12 12 9 9 8 8 7 3 2 2 2 3 4 4 3 3 5 6 7 7 7 9 6 5 5 3 3 4 4 3 2 2 2 3 4 8 9 10 11 7 1 3 7 6 5 6 6 6 5 6 6 6
24 21 19 19 20 20 20 21 20 19 20 20 22 18 12 9 7 4 3 2 2 2 3 5 5 4 1 0 4 10 11 9 5 4 9 12 12 12 7 5 5 6 4 4 2 1 3 5 4 5 7 8 7 6 6 6 7 9 6 5 4 4 2 4 3 4 1 3 3 3 3 8 9 11 13 8 1 3 8 7 7 7 6 6 6 7 7 7
24 22 19 18 21 20 19 20 20 20 21 24 23 11 4 6 5 5 4 1 1 1 3 3 4 4 2 2 7 10 7 4 3 3 8 9 11 11 2 2 6 4 0 3 3 2 4 5 7 6 7 8 7 7 8 7 7 6 6 5 2 2 2 3 2 3 2 2 2 1 3 9 9 10 11 7 4 6 7 6 7 7 7 6 6 8 7 6
24 22 20 18 20 20 19 20 20 21 22 21 14 3 2 4 4 9 8 4 0 2 5 3 4 4 2 3 6 4 3 5 3 1 3 6 5 6 1 3 7 3 1 3 4 3 3 4 7 5 6 9 7 6 9 8 7 6 4 5 2 2 2 2 3 4 4 1 2 3 4 8 10 10 10 7 5 6 5 5 6 6 7 7 6 7 7 7
24 22 20 19 19 20 20 20 20 21 21 16 9 4 3 3 8 13 8 5 1 2 4 3 4 3 3 2 5 2 4 4 4 3 2 4 3 3 5 5 6 5 2 5 6 6 4 5 5 6 9 11 7 5 10 8 5 4 4 5 3 2 2 1 2 4 3 2 1 1 3 7 7 7 7 4 4 5 6 6 6 5 7 8 7 6 7 8
24 22 20 19 20 20 21 21 19 19 19 14 11 8 6 8 12 11 5 4 2 2 1 2 3 4 2 3 4 3 4 2 4 4 2 4 4 2 5 5 6 6 3 6 8 7 4 4 2 7 7 9 8 4 8 7 3 1 3 5 4 4 4 3 1 1 2 3 2 2 2 5 4 5 6 4 4 5 5 5 4 3 4 6 6 5 6 6
23 20 20 21 22 23 23 20 17 18 16 12 10 8 7 10 12 8 4 3 2 2 1 1 1 2 3 3 3 3 3 2 1 2 1 4 5 3 3 2 4 5 4 6 8 5 2 2 3 8 5 7 9 4 5 7 4 0 3 6 7 7 6 3 2 3 3 3 3 4 3 4 5 4 6 4 7 7 6 6 6 6 5 4 4 5 4 4
22 20 22 24 26 28 23 13 14 18 13 9 10 8 8 12 12 7 4 4 1 1 1 2 1 3 6 2 1 4 4 1 1 2 2 3 2 3 4 1 2 3 5 6 5 2 1 2 3 7 6 7 7 5 6 6 7 2 4 5 7 8 9 7 5 4 2 1 2 4 3 3 6 6 6 4 6 7 6 6 6 6 6 6 5 5 5 4
22 23 26 28 30 31 17 8 16 18 8 8 12 11 9 13 11 4 4 5 1 3 3 0 1 4 6 1 0 5 4 3 1 3 3 2 1 3 5 3 2 2 3 4 2 1 3 3 4 6 6 6 6 5 6 7 8 3 3 6 8 9 8 7 6 4 1 2 2 4 3 1 4 6 6 4 3 6 7 6 7 6 6 7 6 6 6 5
24 26 29 29 32 28 10 9 22 15 5 9 14 12 11 13 9 3 5 3 1 2 3 1 1 4 3 2 4 4 2 1 4 1 3 4 1 3 4 4 5 5 1 4 4 2 3 5 6 6 6 4 4 4 5 8 6 3 3 6 7 8 7 5 6 4 1 1 2 5 4 1 5 6 6 4 1 3 5 5 6 7 6 7 6 7 6 5
24 27 29 30 32 21 6 11 23 15 10 14 15 13 14 12 6 4 4 3 2 2 1 1 3 2 1 3 5 4 2 3 2 3 3 4 3 5 4 4 7 8 4 4 6 1 1 5 7 6 5 5 3 1 1 4 4 4 6 7 7 7 6 5 5 3 3 2 3 4 3 0 4 6 4 3 0 3 3 2 4 5 5 5 6 6 6 6
26 28 30 32 29 18 8 13 21 17 12 14 15 16 15 8 3 4 2 4 3 1 0 2 2 1 4 5 3 4 3 2 1 1 2 2 5 7 3 3 6 8 4 7 5 1 2 1 1 2 3 5 4 4 3 2 5 8 6 7 7 6 5 4 3 4 4 2 5 4 2 0 2 5 4 2 2 4 4 1 3 4 5 5 5 5 5 5
28 28 30 29 24 17 11 11 18 16 12 15 17 15 11 4 3 4 4 3 4 2 1 2 1 3 8 9 3 1 3 2 1 2 2 1 4 4 2 2 4 5 4 4 4 4 3 2 0 0 2 5 6 6 5 3 5 7 4 6 5 4 4 4 4 4 2 4 6 4 2 1 3 4 2 3 4 4 6 5 5 5 6 5 5 5 5 4
29 26 27 25 19 15 11 11 18 16 13 18 17 9 6 4 2 4 3 2 3 3 4 4 2 5 9 7 4 3 3 2 1 3 4 3 3 3 3 4 4 4 1 3 1 3 3 1 1 1 0 4 6 6 4 4 4 5 5 6 5 2 3 2 3 1 2 5 3 2 1 2 5 6 5 6 6 5 6 4 3 1 3 4 5 5 4 4
28 27 26 23 18 13 11 14 18 16 16 18 11 4 6 4 6 5 3 3 2 2 4 4 3 6 9 7 3 3 3 2 2 2 2 3 4 3 1 2 6 5 3 5 4 2 1 3 2 2 1 2 5 6 3 2 1 4 6 5 5 3 3 2 3 1 3 4 2 3 2 1 4 6 7 9 8 6 6 5 4 4 2 3 4 4 4 4
25 30 27 22 17 12 12 17 16 16 19 14 5 5 6 6 6 4 4 4 1 2 2 5 7 8 7 5 4 5 3 1 3 3 2 3 5 5 3 3 3 5 4 4 3 4 3 3 3 3 2 2 3 4 5 6 3 2 3 5 5 5 4 4 4 3 3 2 2 3 2 3 3 3 5 8 6 4 4 5 4 4 4 4 4 3 2 4
21 30 27 20 16 12 14 18 15 16 16 8 4 6 7 8 4 3 6 5 1 2 3 4 9 9 3 2 0 4 3 1 3 4 3 4 6 7 6 5 5 4 5 5 3 2 4 3 3 2 3 2 3 2 3 7 3 1 1 5 3 4 5 4 3 5 4 1 1 2 3 4 3 3 4 4 3 1 1 3 3 3 3 1 1 2 3 4
19 25 21 16 15 14 15 16 15 16 12 6 6 7 6 5 4 4 6 5 4 6 7 4 4 5 3 2 0 4 1 3 3 3 3 3 3 5 5 4 6 5 5 6 3 2 3 1 3 3 3 2 1 2 1 2 3 2 2 3 4 3 8 6 2 1 3 2 2 1 3 5 3 3 5 2 2 2 3 3 4 4 3 5 5 4 4 4
16 16 11 9 13 15 13 13 15 14 7 5 8 7 2 1 3 4 4 5 6 9 10 6 1 3 6 4 4 7 3 3 3 3 3 3 2 5 6 4 5 7 5 4 2 3 5 2 3 2 2 2 1 1 3 3 3 5 3 5 4 3 5 5 2 3 4 1 3 1 3 4 1 2 4 2 5 2 1 5 5 5 6 7 5 3 2 3
10 10 7 5 10 14 13 12 14 10 5 3 7 4 1 1 1 1 2 5 7 6 7 6 3 3 6 6 6 7 6 5 5 4 4 3 4 6 9 5 4 7 7 3 2 2 5 3 3 2 2 2 4 3 3 3 4 3 4 3 4 3 2 2 3 2 1 2 4 3 3 3 4 4 2 5 9 5 4 6 7 8 8 7 5 3 2 1
4 5 3 3 7 12 14 13 10 6 4 5 7 3 1 1 0 1 1 3 5 5 5 5 2 2 4 6 6 7 7 7 7 6 4 4 4 5 9 6 2 5 6 5 3 2 4 4 1 1 1 1 3 1 4 2 3 3 2 2 2 2 4 2 3 4 3 3 2 3 3 3 6 6 6 10 10 9 9 7 7 9 8 7 6 5 4 3
2 2 1 1 5 10 14 12 6 4 4 6 5 3 1 1 1 2 2 1 2 2 3 4 3 4 4 3 4 6 5 6 8 7 4 5 4 4 6 6 5 6 4 4 3 2 3 3 3 1 3 1 2 2 6 6 3 2 3 4 2 2 2 2 1 2 4 4 3 1 3 5 6 4 7 9 8 9 11 10 9 8 8 7 6 6 5 5
2 2 1 2 2 9 12 9 3 3 4 2 3 3 1 2 3 0 3 2 2 1 2 5 4 5 5 4 4 5 4 4 6 5 3 5 6 4 5 6 8 9 5 4 3 3 2 3 5 2 1 2 3 3 3 4 4 4 4 5 6 4 4 3 1 1 2 3 4 4 3 7 6 3 5 6 6 9 11 12 11 8 8 8 5 6 5 4
2 2 1 3 1 6 8 5 1 2 3 2 3 3 2 2 3 2 1 3 3 1 2 4 3 3 4 4 3 5 6 4 5 6 4 6 7 4 3 5 9 11 8 4 3 3 3 4 5 2 3 3 3 3 2 3 1 2 2 3 5 4 4 6 5 3 2 2 2 3 1 7 6 3 5 5 5 7 7 8 10 9 8 7 6 5 2 3
1 1 2 3 1 3 4 4 2 2 2 2 1 2 2 2 2 2 1 2 2 2 2 2 2 2 2 3 4 6 8 5 5 6 3 3 4 3 3 7 11 10 7 4 3 3 2 4 4 1 3 2 4 4 1 0 1 1 3 2 4 3 3 5 5 4 4 4 3 3 1 6 6 3 3 4 4 4 3 4 8 8 6 6 6 3 1 3
1 1 3 4 3 0 2 3 4 4 3 1 2 3 1 1 2 3 2 1 1 2 3 1 2 2 2 3 5 7 8 5 5 6 2 3 3 1 1 7 10 9 6 4 5 5 3 3 5 3 2 3 4 4 3 3 1 3 3 2 4 4 6 4 2 4 2 5 6 5 4 6 5 4 3 1 2 4 4 4 5 7 6 6 6 2 2 3
2 1 2 4 5 3 1 1 2 4 4 4 5 4 2 2 1 2 4 3 1 3 3 1 1 3 3 3 4 4 6 3 3 5 2 2 1 3 3 2 5 6 2 1 5 7 4 3 5 6 6 5 5 4 4 3 3 2 2 4 5 6 8 5 3 4 3 4 6 6 5 5 5 4 4 1 5 6 6 5 4 5 6 6 5 2 3 4
1 1 0 2 4 3 1 1 1 3 5 7 5 3 4 3 1 1 3 3 1 2 3 1 1 3 3 3 4 4 6 1 2 3 4 3 2 2 3 1 1 1 1 2 8 7 3 2 5 7 10 10 9 7 4 6 6 4 4 7 8 7 8 6 5 4 5 3 3 6 5 4 5 3 1 6 8 7 7 6 6 6 6 5 4 2 2 5
1 1 2 1 1 1 1 1 0 1 3 6 5 3 5 4 2 1 2 1 2 3 3 2 2 2 3 6 5 4 5 2 2 3 4 3 2 2 2 3 4 1 3 3 5 5 4 4 6 9 11 8 5 5 5 7 8 8 8 9 9 8 8 8 7 8 6 6 7 8 7 6 7 6 7 10 9 7 8 8 8 8 6 5 3 3 4 5
1 1 0 1 1 1 1 2 4 1 1 3 3 4 6 5 4 3 1 2 1 2 2 1 0 2 5 7 5 4 5 3 1 2 2 2 2 1 3 3 1 1 2 3 0 3 5 6 6 7 9 5 3 3 5 7 7 8 10 12 12 11 12 12 14 11 9 8 11 6 10 10 9 7 10 12 12 11 11 9 7 6 4 4 5 6 5 4
0 1 1 2 1 1 1 3 7 5 2 3 2 4 8 8 6 4 2 2 1 1 2 3 3 3 4 4 4 5 6 5 4 3 3 3 3 3 2 1 0 1 3 4 1 2 4 4 4 6 7 5 1 1 3 5 5 6 9 12 14 15 16 17 18 15 13 12 9 7 11 13 8 9 13 13 10 7 5 5 4 5 5 5 5 5 5 5
1 1 0 2 2 1 1 3 8 6 3 3 2 2 6 9 9 4 1 3 3 2 1 3 4 4 4 4 4 3 6 7 6 7 7 6 4 3 3 4 3 1 1 4 3 2 3 3 3 6 5 4 1 1 3 4 4 4 6 8 11 13 15 17 18 13 10 11 5 6 7 10 5 6 10 9 5 4 4 5 6 5 5 6 6 6 6 6
2 1 1 3 2 1 1 2 5 6 4 4 4 2 4 8 8 5 1 1 4 5 5 7 6 3 4 3 4 2 5 5 6 8 9 8 6 5 3 4 6 6 4 4 3 2 3 2 2 5 4 5 3 2 4 5 5 1 3 8 12 13 13 14 11 8 9 12 8 5 7 9 4 6 7 5 6 6 7 8 7 6 5 7 8 8 7 7
2 1 1 3 2 0 1 2 3 4 3 3 4 2 3 4 5 5 3 1 1 3 5 9 9 4 3 4 4 4 5 4 4 5 5 4 4 4 3 3 6 7 6 5 3 2 5 5 2 4 6 4 4 2 6 7 4 3 8 12 16 14 11 7 5 6 11 12 9 8 11 8 6 8 8 5 6 8 10 9 7 6 6 7 8 9 9 8
Wind_Direction
185 183 179 177 180 179 177 181 179 179 180 179 181 183 182 182 183 185 185 185 188 189 187 188 190 193 194 199 205 209 213 218 220 211 210 230 234 228 239 222 206 205 185 177 169 155 139 138 151 139 126 89 15 358 40 21 59 60 75 96 120 176 194 179 178 193 165 176 188 208 203 148 159 227 116 111 50 15 310 303 297 297 268 231 201 123 150 157
182 177 174 172 176 176 172 174 175 177 178 178 180 182 182 180 180 179 179 183 184 186 188 187 188 191 194 196 199 202 204 207 212 227 229 231 235 230 233 223 205 200 185 178 174 160 143 151 154 123 85 53 5 4 53 2 59 85 111 108 197 200 201 187 175 185 159 102 152 167 211 153 162 167 117 193 308 8 284 280 324 319 271 241 270 157 158 161
176 171 172 170 174 175 171 170 171 174 173 176 179 179 180 178 178 179 179 181 182 186 189 188 188 189 193 192 191 195 190 188 227 248 240 228 225 226 224 216 207 199 190 185 183 174 163 160 149 119 65 61 21 24 69 11 28 140 118 106 234 211 209 220 185 191 201 137 135 150 186 152 168 164 133 177 228 356 221 237 257 270 247 221 225 158 161 164
172 171 172 174 178 176 171 172 171 172 172 174 178 177 179 181 181 179 179 180 183 188 190 189 188 187 188 185 181 179 166 79 269 233 231 220 214 217 211 203 201 197 196 192 191 186 162 146 133 100 76 68 349 24 85 349 271 136 112 161 222 187 138 216 205 213 215 154 141 142 135 151 192 161 132 147 151 284 246 228 209 225 223 197 191 166 166 167
171 172 174 180 186 180 173 175 174 172 174 175 178 178 182 190 186 175 178 181 184 188 190 190 187 184 183 178 174 170 145 55 256 214 203 202 202 208 202 194 195 194 194 189 183 169 149 137 107 68 74 83 22 44 82 313 79 97 72 182 189 152 121 196 222 214 178 123 121 129 141 172 162 126 133 151 176 240 239 240 225 227 208 178 171 169 170 171
172 175 177 183 189 188 179 176 177 175 175 176 176 179 185 192 184 174 179 180 182 186 188 189 186 180 177 171 172 173 155 176 291 225 188 183 188 201 195 190 190 187 185 175 163 150 141 124 93 95 76 80 108 116 182 294 32 118 288 254 190 195 92 245 278 220 150 124 138 156 166 133 121 136 155 172 207 220 214 248 254 255 210 168 158 165 170 177
173 177 179 181 185 187 182 177 178 175 174 176 177 182 185 184 177 176 178 176 181 183 185 187 183 176 167 158 164 162 146 255 307 193 180 171 179 191 185 188 184 179 179 165 152 144 139 114 113 134 94 93 149 145 166 340 36 94 140 287 187 188 37 319 308 163 145 138 176 186 119 105 158 174 119 213 231 223 251 288 278 254 183 157 156 171 180 184
172 174 174 174 178 179 178 177 175 173 174 176 179 181 179 174 172 175 174 175 179 182 185 184 180 172 161 155 152 103 7 258 269 173 176 167 172 179 178 185 177 175 178 170 162 153 141 123 139 150 96 128 156 132 148 94 39 78 147 174 136 101 349 338 56 78 106 124 169 112 94 253 212 168 152 243 251 265 295 328 36 140 148 161 168 180 187 190
172 171 167 170 174 174 174 177 175 174 175 175 178 177 172 169 169 172 173 176 179 182 182 179 177 166 163 162 122 108 222 242 213 177 176 169 168 172 177 183 178 178 176 177 173 157 148 141 170 169 137 163 131 126 161 134 221 157 138 143 114 42 330 24 82 43 42 52 34 112 75 322 248 211 264 256 279 296 310 18 53 132 150 185 185 189 191 193
171 169 166 170 174 174 173 177 176 175 175 175 175 172 168 166 165 168 170 176 182 182 179 176 173 164 167 158 102 153 235 215 196 185 174 173 170 173 180 182 180 180 170 169 172 161 164 174 173 150 128 120 112 120 163 147 174 137 118 109 87 41 338 52 98 19 1 48 18 156 144 314 285 322 265 259 318 314 45 39 347 155 180 200 203 210 202 202
170 167 167 170 174 176 175 176 176 174 175 173 172 170 167 167 166 167 167 176 184 178 175 173 168 167 167 136 121 196 235 175 187 180 173 175 175 179 181 180 179 180 170 155 172 177 176 165 149 118 122 128 114 84 17 136 111 113 126 102 28 9 34 35 66 12 351 84 22 133 141 318 357 317 234 242 329 346 95 45 340 297 242 230 226 239 225 224
169 168 170 171 173 177 176 176 176 173 174 171 169 169 165 168 167 167 168 176 183 175 170 170 168 167 152 104 150 202 199 179 181 175 175 173 176 181 176 177 176 180 176 154 176 191 165 158 131 86 143 141 125 105 135 108 89 112 119 110 353 1 42 17 21 337 350 92 338 95 110 301 249 240 247 272 332 18 92 64 313 270 278 286 262 261 240 235
168 169 173 172 174 177 174 176 177 172 173 169 166 169 168 171 168 168 172 178 179 169 166 167 167 161 137 96 212 197 189 180 176 179 177 170 172 173 166 171 168 174 183 159 160 155 155 158 120 93 114 108 126 171 123 66 58 116 62 101 37 11 7 352 6 323 14 83 319 54 227 284 258 258 268 311 337 12 28 291 288 271 272 280 269 265 252 241
169 170 172 172 175 177 176 178 178 171 170 169 166 171 172 168 167 171 174 179 173 164 163 162 158 150 128 190 201 179 183 175 176 179 174 172 161 149 150 160 161 164 169 152 138 130 144 140 108 100 85 87 134 120 68 26 25 91 59 66 65 122 262 315 2 346 122 87 347 96 184 273 267 275 288 326 348 67 290 289 288 283 271 261 257 255 258 248
170 169 170 173 175 178 178 178 178 172 169 169 165 167 169 167 173 173 170 173 164 157 157 152 150 137 97 285 201 166 175 169 176 179 176 173 155 140 145 147 140 135 141 135 123 124 132 120 99 92 52 31 105 94 55 22 23 40 102 316 356 167 253 316 1 37 123 306 21 98 204 275 270 272 282 326 30 99 269 290 293 284 270 258 250 242 250 257
169 166 168 173 177 178 178 177 177 175 169 166 163 162 162 163 168 163 162 159 149 150 149 146 146 128 100 248 151 159 177 175 176 178 175 174 164 146 140 131 117 114 122 118 115 116 104 92 78 87 107 74 91 103 77 42 11 358 98 172 241 170 258 316 5 10 25 288 358 80 210 269 280 274 282 318 37 56 338 295 290 284 275 264 251 245 245 257
168 167 166 170 175 176 176 176 176 174 166 163 163 160 154 150 150 149 150 140 133 138 138 143 144 115 93 121 126 177 189 170 170 169 169 174 171 150 136 117 104 110 110 106 109 94 53 56 61 101 72 72 106 104 91 66 255 285 54 115 212 185 197 286 293 338 17 93 286 21 229 245 267 280 289 297 300 331 297 281 282 282 278 267 257 256 248 249
169 169 168 169 170 169 172 175 174 171 163 161 159 147 136 131 131 134 139 130 119 111 112 129 130 109 227 186 164 200 160 150 156 157 161 162 159 152 137 113 117 112 96 82 72 48 29 30 70 105 47 50 126 115 138 196 192 172 154 134 190 226 206 242 245 281 14 49 248 347 276 261 277 287 288 288 219 222 259 264 272 277 274 270 262 252 248 248
168 168 169 172 169 167 173 174 173 168 160 155 143 128 118 111 108 120 144 135 117 111 124 155 143 142 213 208 164 126 127 139 142 141 147 149 149 141 116 109 113 100 99 91 37 44 73 58 73 122 129 161 182 164 168 189 162 155 164 142 154 186 222 240 246 266 18 76 260 252 250 274 286 292 289 285 168 217 267 273 269 269 268 270 264 253 253 250
168 167 167 171 169 167 172 172 170 166 160 150 139 128 117 117 106 122 180 164 140 140 141 163 151 125 125 208 129 124 122 124 121 132 146 150 144 122 83 75 72 56 103 139 127 79 90 116 158 177 179 182 174 148 135 137 125 130 126 109 146 165 211 247 257 298 89 136 256 248 266 283 277 278 279 279 311 268 271 273 272 271 266 267 262 261 261 254
167 167 167 171 169 167 172 173 167 164 161 154 148 139 151 164 142 161 173 32 219 79 62 133 128 98 97 133 147 139 120 84 60 104 147 159 148 132 60 10 100 67 352 152 132 80 82 142 204 211 181 158 137 122 109 96 85 97 124 125 139 177 202 251 248 316 355 151 252 359 325 282 268 270 270 275 291 264 257 257 269 277 272 270 267 270 271 267
167 167 168 172 171 169 172 171 166 165 165 162 161 164 215 181 131 150 145 91 180 48 63 100 94 69 61 139 164 162 79 86 86 37 162 157 144 149 144 70 122 139 271 134 111 91 108 197 225 207 144 109 88 96 96 88 88 86 109 128 148 213 215 285 299 335 6 110 260 345 336 282 272 272 271 276 270 263 267 260 264 275 277 281 278 279 286 286
169 168 166 170 172 168 168 167 165 170 171 171 179 187 172 150 133 141 129 90 106 8 61 97 112 101 50 137 185 161 85 120 158 226 222 144 128 152 131 104 122 133 151 159 143 140 167 245 234 173 139 112 83 79 96 88 80 91 111 131 173 235 152 198 272 331 10 74 258 290 301 286 293 303 295 287 271 282 298 282 268 257 257 271 278 282 283 281
169 168 165 166 168 165 164 164 168 176 179 182 192 182 142 138 151 146 105 84 111 2 37 106 130 145 119 150 179 136 104 126 160 179 215 137 138 133 131 130 126 127 164 163 140 142 173 279 180 134 128 120 110 101 114 107 69 68 145 141 165 192 172 189 209 339 359 29 28 36 335 299 326 341 302 301 333 319 322 335 334 309 266 271 292 295 273 266
168 170 167 166 164 161 159 161 172 179 177 188 200 184 143 148 167 159 98 79 99 352 308 128 76 169 153 126 147 150 128 98 133 214 282 123 138 135 126 124 126 150 176 134 120 135 181 295 140 129 112 115 123 147 165 139 114 226 209 176 171 166 154 141 90 70 45 12 356 31 18 293 319 325 273 299 348 333 339 13 10 346 338 340 340 337 318 300
171 171 166 163 159 156 155 161 180 175 169 198 197 170 160 164 172 172 96 65 119 218 182 150 73 161 160 106 117 142 124 130 310 353 54 98 126 117 126 86 56 153 174 136 123 144 144 9 91 127 129 123 130 173 200 151 123 176 221 168 147 130 125 130 116 88 96 215 326 46 116 252 316 311 271 309 341 325 338 12 9 353 356 5 357 347 346 347
171 168 160 157 156 156 155 161 171 165 162 206 186 162 170 169 168 171 75 53 237 176 128 157 340 150 162 293 60 137 157 209 125 58 42 59 350 53 121 167 88 130 176 126 132 205 123 95 74 105 114 122 141 188 204 148 129 188 210 129 128 122 129 138 113 95 167 212 326 19 94 186 301 280 275 315 352 344 352 1 2 3 2 359 356 353 352 348
170 166 160 157 158 160 162 156 161 168 187 180 167 161 164 164 164 126 90 102 228 133 120 238 60 120 147 17 56 104 191 205 121 154 350 53 45 36 99 170 141 126 85 119 171 261 105 153 171 136 114 140 178 222 197 137 115 231 194 125 123 118 122 120 97 93 40 46 295 334 38 145 266 275 306 346 19 339 346 359 1 356 352 356 1 1 357 349
170 167 164 163 163 168 199 171 167 180 191 166 159 161 157 157 157 73 88 159 149 84 68 106 107 97 53 50 42 43 31 34 111 222 336 59 54 47 105 173 131 111 47 86 153 216 69 182 187 144 131 174 187 318 214 125 110 180 147 101 83 77 81 81 86 103 54 47 232 285 12 150 264 284 308 1 77 242 262 320 337 328 340 358 6 7 3 2
167 167 168 167 169 179 189 173 174 180 179 166 160 156 148 144 126 94 153 195 136 105 23 105 148 138 124 114 33 8 56 32 353 29 13 41 27 34 101 149 102 100 39 44 90 235 315 260 197 119 138 168 140 73 35 70 124 139 119 83 69 42 40 53 51 83 67 327 248 264 324 134 272 284 264 225 206 189 180 134 353 355 15 18 14 14 7 8
164 165 168 169 175 180 167 167 179 176 169 161 154 150 137 93 68 136 188 197 113 101 102 117 161 137 149 152 136 54 78 29 322 97 112 84 37 47 109 106 76 72 46 49 39 341 0 29 330 34 125 128 106 72 39 35 95 106 98 97 87 13 11 27 2 43 98 252 259 275 302 168 216 264 278 267 261 205 161 123 72 39 28 22 10 7 0 357
172 170 171 173 175 176 173 175 174 165 160 156 149 142 114 89 167 179 179 162 141 184 178 166 194 167 162 147 113 142 121 74 311 129 139 138 118 148 155 164 147 92 122 171 96 6 36 57 293 1 220 149 116 85 41 351 15 76 111 113 100 20 16 14 318 350 196 239 269 288 270 202 231 249 262 269 260 226 201 172 123 55 14 12 2 356 348 350
176 172 170 174 176 181 185 174 166 158 156 156 145 83 79 131 199 186 154 184 188 179 148 132 139 154 151 137 137 161 114 115 186 132 128 132 141 180 247 178 143 116 175 175 128 110 12 304 300 93 253 212 138 126 133 241 237 132 144 134 131 119 90 226 262 288 247 254 282 285 268 241 267 264 241 236 236 218 216 219 210 223 258 306 321 319 319 350
172 171 172 176 180 187 177 167 166 158 154 153 132 91 114 174 197 135 146 207 264 42 84 111 119 132 142 141 178 177 101 89 174 114 90 119 139 185 224 225 152 100 108 138 148 161 165 261 234 161 216 202 161 168 150 140 133 174 170 126 147 157 144 194 211 188 220 258 296 292 264 186 208 257 223 224 246 251 238 249 257 254 255 269 289 305 337 20
163 168 172 171 172 173 162 161 165 161 156 141 111 144 170 190 191 136 162 190 202 66 51 93 122 131 139 57 231 198 131 137 174 115 135 163 168 188 189 199 196 137 124 154 193 169 159 235 268 281 277 150 160 236 117 107 110 237 123 103 162 183 135 139 174 169 165 127 297 260 234 216 215 266 278 269 280 308 237 249 268 262 255 244 122 88 63 50
146 155 159 151 150 154 156 158 161 166 163 128 139 183 200 191 184 177 162 148 148 132 108 92 103 124 150 78 233 224 134 109 153 142 174 190 199 197 188 195 191 176 160 153 159 170 156 254 321 338 351 64 163 238 77 108 165 155 123 165 207 161 114 114 152 66 83 143 256 218 240 292 312 269 307 347 152 81 79 165 191 196 158 114 117 105 74 59
135 136 134 125 135 148 155 156 161 167 155 130 171 193 200 161 169 166 141 127 143 137 126 137 163 144 160 163 189 199 168 115 150 162 181 192 227 198 192 218 190 186 197 152 155 198 153 121 342 26 70 19 290 142 58 36 111 122 171 198 176 113 99 109 122 21 43 206 276 303 225 287 307 233 322 84 162 153 107 165 171 170 142 127 137 128 83 53
130 120 95 85 130 147 149 152 162 156 109 143 188 189 116 121 158 162 135 132 139 134 137 158 167 146 167 177 183 182 174 165 169 171 169 189 243 201 176 193 195 186 192 140 121 187 126 110 338 24 128 307 345 83 95 20 47 119 181 171 113 130 164 104 126 141 105 213 277 309 274 259 205 217 258 183 187 194 185 170 157 157 150 145 155 157 148 80
116 120 81 66 133 144 146 152 156 125 104 183 193 189 163 135 127 249 208 135 121 120 153 173 156 122 172 174 163 170 182 177 167 172 178 185 235 218 177 177 185 180 176 136 141 174 109 119 218 325 292 298 6 90 177 196 18 40 109 116 73 127 161 155 145 160 165 183 243 312 323 256 225 215 199 197 195 176 166 166 165 165 159 161 166 164 164 132
49 104 56 46 132 145 148 145 132 116 162 197 183 173 187 127 150 262 282 148 114 112 167 176 154 144 161 165 154 166 183 174 167 180 197 183 203 239 201 180 157 161 146 90 116 152 88 118 160 324 328 219 171 218 195 176 144 106 137 164 170 70 116 157 89 111 139 153 177 233 296 264 247 215 196 202 196 176 167 162 171 174 166 173 178 172 163 126
8 94 11 337 132 149 145 137 139 168 170 164 128 148 183 136 140 12 350 52 104 75 145 141 140 144 149 154 161 166 157 152 173 184 203 197 199 225 215 179 153 152 134 92 130 160 126 125 139 141 241 193 216 262 214 185 174 161 175 184 173 140 123 147 244 261 120 130 164 167 247 269 256 204 213 222 192 188 183 165 165 172 173 180 190 190 172 113
24 103 337 328 164 155 142 136 173 128 121 160 154 139 127 109 117 133 13 48 76 61 71 96 111 131 148 152 145 155 152 152 183 187 202 212 201 205 211 154 144 153 147 131 162 165 126 105 112 150 208 204 256 280 207 213 224 136 199 195 160 152 135 146 202 224 126 113 145 123 229 272 264 209 222 245 211 197 194 167 159 165 177 188 196 205 199 86
32 61 351 350 347 172 141 143 175 105 111 213 172 70 72 102 105 130 133 54 81 88 54 75 133 135 163 158 134 160 167 163 189 194 204 209 195 227 207 149 144 152 148 141 164 157 123 103 103 50 305 311 318 334 35 335 66 152 234 191 153 179 143 143 180 169 137 164 145 86 278 268 276 266 243 254 241 214 203 172 163 164 180 200 200 205 360 60
65 10 349 9 31 125 172 175 182 165 150 125 90 75 46 82 112 129 141 145 141 123 104 130 162 130 158 149 133 168 181 178 197 202 195 175 185 329 159 165 162 158 162 186 177 169 181 148 125 108 33 2 347 348 335 306 225 203 225 183 158 127 95 100 126 99 125 200 158 145 236 254 271 307 328 290 192 179 190 200 180 171 181 197 194 185 25 52
92 52 326 354 33 61 178 208 153 145 144 130 125 136 111 55 58 150 141 133 142 138 128 149 164 95 116 126 98 151 179 159 170 188 166 170 217 14 26 213 193 171 189 267 150 153 170 170 151 146 159 188 203 209 225 213 185 212 210 180 177 147 138 150 115 105 220 220 160 167 225 256 280 335 11 133 166 173 199 228 228 201 196 194 179 144 60 66
126 121 180 352 17 41 22 340 69 125 150 149 145 159 142 113 349 314 116 123 157 123 93 93 142 88 94 133 117 156 190 125 69 159 159 164 213 337 357 4 137 144 353 106 141 140 127 183 189 182 193 201 194 196 181 130 144 189 185 174 177 169 163 136 107 172 198 151 182 216 194 197 254 289 226 185 182 186 199 210 216 208 208 214 204 176 106 93
105 117 145 121 40 76 48 342 208 123 159 164 164 172 152 132 129 32 47 89 177 127 73 54 128 125 158 161 144 169 186 135 64 128 144 149 166 317 337 86 103 16 11 114 151 118 104 200 206 197 213 213 170 179 171 139 163 182 167 167 175 173 161 150 184 206 147 123 236 231 170 186 234 234 208 195 190 203 207 200 199 196 197 203 180 111 108 106
75 89 118 44 89 148 123 173 179 158 163 168 147 149 154 148 151 156 89 23 49 121 104 72 88 172 175 167 152 155 156 141 165 160 125 132 137 71 19 55 95 318 50 94 141 94 132 204 206 189 216 219 124 169 180 157 166 171 168 175 175 172 172 184 211 207 152 185 238 195 162 204 225 212 208 200 192 199 202 198 196 187 176 159 129 114 127 137
55 92 358 360 76 112 42 143 156 158 171 159 131 156 169 172 170 167 128 90 37 285 137 149 214 203 171 154 130 149 167 163 184 204 169 147 144 119 99 105 288 338 91 121 170 120 153 207 185 169 207 219 142 176 176 150 146 166 184 184 174 179 186 194 214 209 187 214 231 151 179 220 215 197 209 206 195 186 180 188 192 180 163 141 137 143 156 173
105 135 134 60 76 54 14 141 152 158 172 167 172 182 175 179 179 173 128 130 159 217 143 158 195 172 143 133 106 144 198 176 170 192 175 154 167 174 173 179 168 80 97 143 165 192 194 210 152 138 192 242 295 98 128 121 135 170 195 192 183 190 196 205 217 209 199 228 222 137 208 245 233 208 216 206 175 126 146 193 202 196 175 153 159 168 174 185
101 123 127 104 88 97 128 136 145 154 168 180 186 177 174 189 183 156 123 139 153 167 164 163 166 127 104 110 98 134 209 187 173 184 171 161 176 181 188 188 156 147 163 159 147 157 170 185 65 103 171 250 316 108 122 81 65 55 235 206 196 198 201 210 215 188 187 216 207 167 238 250 214 200 223 202 150 152 186 200 204 214 198 170 171 178 182 185
85 20 68 104 93 66 107 115 142 159 175 175 171 149 153 184 169 146 161 301 87 148 169 163 156 127 113 152 166 179 185 160 138 146 140 126 123 119 117 135 137 144 162 156 131 139 148 147 118 134 177 254 317 118 125 91 73 271 248 210 198 203 204 203 224 216 204 204 190 198 233 233 166 178 210 208 179 192 203 199 197 209 201 185 180 176 177 180